Time,TemperatureF,DewpointF,PressureIn,WindDirection,WindDirectionDegrees,WindSpeedMPH,WindSpeedGustMPH,Humidity,HourlyPrecipIn,Conditions,Clouds,dailyrainin,SoftwareType,DateUTC
2013-03-31 00:02:00,46.0,43.0,29.86,WSW,251,6.0,-999.0,89,-99.99,,,-99.99,,2013-03-31 05:02:00,
2013-03-31 00:12:00,46.0,43.0,29.86,WSW,251,6.0,-999.0,89,-99.99,,,-99.99,,2013-03-31 05:12:00,
2013-03-31 00:22:00,46.0,44.0,29.85,SW,229,2.0,-999.0,91,-99.99,,,-99.99,,2013-03-31 05:22:00,
2013-03-31 00:32:00,45.0,43.0,29.85,SSW,205,2.0,-999.0,93,-99.99,,,-99.99,,2013-03-31 05:32:00,
2013-03-31 00:42:00,45.0,43.0,29.85,SSW,205,2.0,-999.0,93,-99.99,,,-99.99,,2013-03-31 05:42:00,
2013-03-31 00:52:00,45.0,43.0,29.85,SW,230,4.0,-999.0,93,-99.99,,,-99.99,,2013-03-31 05:52:00,
2013-03-31 01:02:00,46.0,44.0,29.84,SW,234,6.0,-999.0,93,-99.99,,,-99.99,,2013-03-31 06:02:00,
2013-03-31 01:12:00,46.0,44.0,29.84,SW,234,6.0,-999.0,93,-99.99,,,-99.99,,2013-03-31 06:12:00,
2013-03-31 01:22:00,46.0,44.0,29.84,WSW,238,7.0,-999.0,92,-99.99,,,-99.99,,2013-03-31 06:22:00,
2013-03-31 01:32:00,46.0,44.0,29.84,WSW,242,8.0,-999.0,92,-99.99,,,-99.99,,2013-03-31 06:32:00,
2013-03-31 01:42:00,46.0,44.0,29.84,WSW,242,8.0,-999.0,92,-99.99,,,-99.99,,2013-03-31 06:42:00,
2013-03-31 01:52:00,46.0,44.0,29.83,WSW,248,9.0,-999.0,92,-99.99,,,-99.99,,2013-03-31 06:52:00,
2013-03-31 02:02:00,46.0,44.0,29.83,WSW,241,7.0,-999.0,92,-99.99,,,-99.99,,2013-03-31 07:02:00,
2013-03-31 02:12:00,46.0,44.0,29.83,WSW,241,7.0,-999.0,92,-99.99,,,-99.99,,2013-03-31 07:12:00,
2013-03-31 02:22:00,46.0,44.0,29.83,WSW,248,7.0,-999.0,92,-99.99,,,-99.99,,2013-03-31 07:22:00,
2013-03-31 02:33:00,46.0,44.0,29.82,WSW,248,8.0,-999.0,92,-99.99,,,-99.99,,2013-03-31 07:33:00,
2013-03-31 02:42:00,46.0,44.0,29.82,WSW,248,8.0,-999.0,92,-99.99,,,-99.99,,2013-03-31 07:42:00,
2013-03-31 02:52:00,46.0,44.0,29.82,WSW,258,8.0,-999.0,92,-99.99,,,-99.99,,2013-03-31 07:52:00,
2013-03-31 03:02:00,46.0,44.0,29.82,West,259,8.0,-999.0,93,-99.99,,,-99.99,,2013-03-31 08:02:00,
2013-03-31 03:12:00,46.0,44.0,29.82,West,259,8.0,-999.0,93,-99.99,,,-99.99,,2013-03-31 08:12:00,
2013-03-31 03:22:00,46.0,44.0,29.82,WSW,251,8.0,-999.0,93,-99.99,,,-99.99,,2013-03-31 08:22:00,
2013-03-31 03:32:00,45.0,43.0,29.81,West,273,7.0,-999.0,93,-99.99,,,-99.99,,2013-03-31 08:32:00,
2013-03-31 03:42:00,45.0,43.0,29.81,West,273,7.0,-999.0,93,-99.99,,,-99.99,,2013-03-31 08:42:00,
2013-03-31 03:52:00,45.0,43.0,29.82,West,269,7.0,-999.0,93,-99.99,,,-99.99,,2013-03-31 08:52:00,
2013-03-31 04:02:00,45.0,43.0,29.82,West,273,7.0,-999.0,93,-99.99,,,-99.99,,2013-03-31 09:02:00,
2013-03-31 04:12:00,45.0,43.0,29.82,West,273,7.0,-999.0,93,-99.99,,,-99.99,,2013-03-31 09:12:00,
2013-03-31 04:22:00,45.0,43.0,29.82,West,270,5.0,-999.0,94,-99.99,,,-99.99,,2013-03-31 09:22:00,
2013-03-31 04:33:00,45.0,43.0,29.81,WNW,290,6.0,-999.0,94,-99.99,,,-99.99,,2013-03-31 09:33:00,
2013-03-31 04:42:00,45.0,43.0,29.81,WNW,290,6.0,-999.0,94,-99.99,,,-99.99,,2013-03-31 09:42:00,
2013-03-31 04:53:00,44.0,42.0,29.81,NW,306,7.0,-999.0,93,-99.99,,,-99.99,,2013-03-31 09:53:00,
2013-03-31 05:03:00,44.0,42.0,29.81,WNW,303,7.0,-999.0,92,-99.99,,,-99.99,,2013-03-31 10:03:00,
2013-03-31 05:13:00,44.0,42.0,29.81,WNW,303,7.0,-999.0,92,-99.99,,,-99.99,,2013-03-31 10:13:00,
2013-03-31 05:23:00,44.0,42.0,29.81,West,260,7.0,-999.0,92,-99.99,,,-99.99,,2013-03-31 10:23:00,
2013-03-31 05:32:00,44.0,42.0,29.82,NW,304,8.0,-999.0,91,-99.99,,,-99.99,,2013-03-31 10:32:00,
2013-03-31 05:42:00,44.0,42.0,29.82,NW,304,8.0,-999.0,91,-99.99,,,-99.99,,2013-03-31 10:42:00,
2013-03-31 05:52:00,44.0,42.0,29.82,West,281,6.0,-999.0,91,-99.99,,,-99.99,,2013-03-31 10:52:00,
2013-03-31 06:02:00,43.0,41.0,29.82,West,271,6.0,-999.0,91,-99.99,,,-99.99,,2013-03-31 11:02:00,
2013-03-31 06:12:00,43.0,41.0,29.82,West,271,6.0,-999.0,91,-99.99,,,-99.99,,2013-03-31 11:12:00,
2013-03-31 06:23:00,43.0,41.0,29.83,West,275,4.0,-999.0,92,-99.99,,,-99.99,,2013-03-31 11:23:00,
2013-03-31 06:32:00,43.0,41.0,29.82,West,262,4.0,-999.0,92,-99.99,,,-99.99,,2013-03-31 11:32:00,
2013-03-31 06:42:00,43.0,41.0,29.82,West,262,4.0,-999.0,92,-99.99,,,-99.99,,2013-03-31 11:42:00,
2013-03-31 06:52:00,43.0,41.0,29.81,West,278,4.0,-999.0,92,-99.99,,,-99.99,,2013-03-31 11:52:00,
2013-03-31 07:03:00,43.0,41.0,29.81,WNW,293,5.0,-999.0,93,-99.99,,,-99.99,,2013-03-31 12:03:00,
2013-03-31 07:12:00,43.0,41.0,29.81,WNW,293,5.0,-999.0,93,-99.99,,,-99.99,,2013-03-31 12:12:00,
2013-03-31 07:22:00,43.0,41.0,29.81,West,277,6.0,-999.0,92,-99.99,,,-99.99,,2013-03-31 12:22:00,
2013-03-31 07:33:00,43.0,41.0,29.82,West,263,5.0,-999.0,92,-99.99,,,-99.99,,2013-03-31 12:33:00,
2013-03-31 07:42:00,43.0,41.0,29.82,West,263,5.0,-999.0,92,-99.99,,,-99.99,,2013-03-31 12:42:00,
2013-03-31 07:52:00,43.0,41.0,29.83,West,275,6.0,-999.0,92,-99.99,,,-99.99,,2013-03-31 12:52:00,
2013-03-31 08:02:00,43.0,41.0,29.83,WSW,250,8.0,-999.0,91,-99.99,,,-99.99,,2013-03-31 13:02:00,
2013-03-31 08:12:00,43.0,41.0,29.83,WSW,250,8.0,-999.0,91,-99.99,,,-99.99,,2013-03-31 13:12:00,
2013-03-31 08:22:00,43.0,41.0,29.82,West,267,8.0,-999.0,91,-99.99,,,-99.99,,2013-03-31 13:22:00,
2013-03-31 08:32:00,43.0,41.0,29.82,West,279,6.0,-999.0,92,-99.99,,,-99.99,,2013-03-31 13:32:00,
2013-03-31 08:42:00,43.0,41.0,29.82,West,279,6.0,-999.0,92,-99.99,,,-99.99,,2013-03-31 13:42:00,
2013-03-31 08:52:00,43.0,41.0,29.82,West,272,10.0,-999.0,91,-99.99,,,-99.99,,2013-03-31 13:52:00,
2013-03-31 09:02:00,43.0,41.0,29.82,WSW,251,9.0,-999.0,91,-99.99,,,-99.99,,2013-03-31 14:02:00,
2013-03-31 09:12:00,43.0,41.0,29.82,WSW,251,9.0,-999.0,91,-99.99,,,-99.99,,2013-03-31 14:12:00,
2013-03-31 09:22:00,44.0,42.0,29.82,WSW,257,10.0,-999.0,91,-99.99,,,-99.99,,2013-03-31 14:22:00,
2013-03-31 09:32:00,45.0,42.0,29.82,West,269,8.0,-999.0,89,-99.99,,,-99.99,,2013-03-31 14:32:00,
2013-03-31 09:42:00,45.0,42.0,29.82,West,269,8.0,-999.0,89,-99.99,,,-99.99,,2013-03-31 14:42:00,
2013-03-31 09:52:00,44.0,41.0,29.81,WSW,253,9.0,-999.0,88,-99.99,,,-99.99,,2013-03-31 14:52:00,
2013-03-31 10:03:00,45.0,41.0,29.81,West,279,8.0,-999.0,87,-99.99,,,-99.99,,2013-03-31 15:03:00,
2013-03-31 10:13:00,45.0,41.0,29.81,West,279,8.0,-999.0,87,-99.99,,,-99.99,,2013-03-31 15:13:00,
2013-03-31 10:22:00,46.0,42.0,29.81,SW,234,9.0,-999.0,86,-99.99,,,-99.99,,2013-03-31 15:22:00,
2013-03-31 10:33:00,47.0,43.0,29.80,WSW,247,9.0,-999.0,86,-99.99,,,-99.99,,2013-03-31 15:33:00,
2013-03-31 10:43:00,47.0,43.0,29.80,WSW,247,9.0,-999.0,86,-99.99,,,-99.99,,2013-03-31 15:43:00,
2013-03-31 10:53:00,48.0,43.0,29.80,West,272,8.0,-999.0,82,-99.99,,,-99.99,,2013-03-31 15:53:00,
2013-03-31 11:03:00,49.0,43.0,29.80,WSW,251,8.0,-999.0,81,-99.99,,,-99.99,,2013-03-31 16:03:00,
2013-03-31 11:13:00,49.0,43.0,29.80,WSW,251,8.0,-999.0,81,-99.99,,,-99.99,,2013-03-31 16:13:00,
2013-03-31 11:23:00,50.0,44.0,29.80,SW,234,7.0,-999.0,80,-99.99,,,-99.99,,2013-03-31 16:23:00,
2013-03-31 11:33:00,51.0,43.0,29.80,SW,229,8.0,-999.0,75,-99.99,,,-99.99,,2013-03-31 16:33:00,
2013-03-31 11:43:00,51.0,43.0,29.80,SW,229,8.0,-999.0,75,-99.99,,,-99.99,,2013-03-31 16:43:00,
2013-03-31 11:53:00,52.0,42.0,29.79,WSW,249,12.0,-999.0,68,-99.99,,,-99.99,,2013-03-31 16:53:00,
2013-03-31 12:03:00,53.0,43.0,29.78,West,277,11.0,-999.0,68,-99.99,,,-99.99,,2013-03-31 17:03:00,
2013-03-31 12:12:00,53.0,43.0,29.78,West,277,11.0,-999.0,68,-99.99,,,-99.99,,2013-03-31 17:12:00,
2013-03-31 12:22:00,55.0,42.0,29.78,West,273,10.0,-999.0,61,-99.99,,,-99.99,,2013-03-31 17:22:00,
2013-03-31 12:32:00,55.0,40.0,29.78,West,273,11.0,-999.0,57,-99.99,,,-99.99,,2013-03-31 17:32:00,
2013-03-31 12:43:00,55.0,40.0,29.78,West,273,11.0,-999.0,57,-99.99,,,-99.99,,2013-03-31 17:43:00,
2013-03-31 12:52:00,56.0,41.0,29.77,West,259,11.0,-999.0,58,-99.99,,,-99.99,,2013-03-31 17:52:00,
2013-03-31 13:02:00,55.0,41.0,29.78,West,261,14.0,-999.0,58,-99.99,,,-99.99,,2013-03-31 18:02:00,
2013-03-31 13:13:00,55.0,41.0,29.78,West,261,14.0,-999.0,58,-99.99,,,-99.99,,2013-03-31 18:13:00,
2013-03-31 13:22:00,56.0,41.0,29.77,West,265,15.0,-999.0,57,-99.99,,,-99.99,,2013-03-31 18:22:00,
2013-03-31 13:32:00,56.0,42.0,29.77,West,268,14.0,-999.0,59,-99.99,,,-99.99,,2013-03-31 18:32:00,
2013-03-31 13:42:00,56.0,42.0,29.77,West,268,14.0,-999.0,59,-99.99,,,-99.99,,2013-03-31 18:42:00,
2013-03-31 13:53:00,56.0,41.0,29.77,West,269,14.0,-999.0,56,-99.99,,,-99.99,,2013-03-31 18:53:00,
2013-03-31 14:03:00,55.0,41.0,29.77,WNW,288,12.0,-999.0,60,-99.99,,,-99.99,,2013-03-31 19:03:00,
2013-03-31 14:12:00,55.0,41.0,29.77,WNW,288,12.0,-999.0,60,-99.99,,,-99.99,,2013-03-31 19:12:00,
2013-03-31 14:22:00,56.0,41.0,29.76,West,273,13.0,-999.0,56,-99.99,,,-99.99,,2013-03-31 19:22:00,
2013-03-31 14:32:00,56.0,40.0,29.76,West,281,15.0,-999.0,54,-99.99,,,-99.99,,2013-03-31 19:32:00,
2013-03-31 14:42:00,56.0,40.0,29.76,West,281,15.0,-999.0,54,-99.99,,,-99.99,,2013-03-31 19:42:00,
2013-03-31 14:54:00,56.0,38.0,29.76,WNW,287,14.0,-999.0,51,-99.99,,,-99.99,,2013-03-31 19:54:00,
2013-03-31 15:02:00,56.0,38.0,29.76,WSW,244,16.0,-999.0,51,-99.99,,,-99.99,,2013-03-31 20:02:00,
2013-03-31 15:12:00,56.0,38.0,29.76,WSW,244,16.0,-999.0,51,-99.99,,,-99.99,,2013-03-31 20:12:00,
2013-03-31 15:22:00,55.0,36.0,29.77,West,267,17.0,-999.0,48,-99.99,,,-99.99,,2013-03-31 20:22:00,
2013-03-31 15:33:00,55.0,36.0,29.77,West,266,16.0,-999.0,48,-99.99,,,-99.99,,2013-03-31 20:33:00,
2013-03-31 15:43:00,55.0,36.0,29.77,West,266,16.0,-999.0,48,-99.99,,,-99.99,,2013-03-31 20:43:00,
2013-03-31 15:53:00,54.0,36.0,29.78,West,277,16.0,-999.0,51,-99.99,,,-99.99,,2013-03-31 20:53:00,
2013-03-31 16:02:00,54.0,36.0,29.78,West,266,15.0,-999.0,50,-99.99,,,-99.99,,2013-03-31 21:02:00,
2013-03-31 16:12:00,54.0,36.0,29.78,West,266,15.0,-999.0,50,-99.99,,,-99.99,,2013-03-31 21:12:00,
2013-03-31 16:22:00,53.0,35.0,29.78,NW,311,14.0,-999.0,51,-99.99,,,-99.99,,2013-03-31 21:22:00,
2013-03-31 16:33:00,53.0,34.0,29.78,West,278,14.0,-999.0,48,-99.99,,,-99.99,,2013-03-31 21:33:00,
2013-03-31 16:43:00,53.0,34.0,29.78,West,278,14.0,-999.0,48,-99.99,,,-99.99,,2013-03-31 21:43:00,
2013-03-31 16:54:00,52.0,32.0,29.78,West,277,15.0,-999.0,46,-99.99,,,-99.99,,2013-03-31 21:54:00,
2013-03-31 17:03:00,52.0,35.0,29.79,WSW,252,14.0,-999.0,53,-99.99,,,-99.99,,2013-03-31 22:03:00,
2013-03-31 17:13:00,52.0,35.0,29.79,WSW,252,14.0,-999.0,53,-99.99,,,-99.99,,2013-03-31 22:13:00,
2013-03-31 17:23:00,51.0,36.0,29.79,WNW,290,12.0,-999.0,57,-99.99,,,-99.99,,2013-03-31 22:23:00,
2013-03-31 17:33:00,51.0,36.0,29.79,West,263,13.0,-999.0,57,-99.99,,,-99.99,,2013-03-31 22:33:00,
2013-03-31 17:42:00,51.0,36.0,29.79,West,263,13.0,-999.0,57,-99.99,,,-99.99,,2013-03-31 22:42:00,
2013-03-31 17:53:00,52.0,37.0,29.80,West,271,12.0,-999.0,56,-99.99,,,-99.99,,2013-03-31 22:53:00,
2013-03-31 18:03:00,51.0,35.0,29.80,WNW,303,13.0,-999.0,55,-99.99,,,-99.99,,2013-03-31 23:03:00,
2013-03-31 18:13:00,51.0,35.0,29.80,WNW,303,13.0,-999.0,55,-99.99,,,-99.99,,2013-03-31 23:13:00,
2013-03-31 18:22:00,51.0,34.0,29.80,West,281,10.0,-999.0,53,-99.99,,,-99.99,,2013-03-31 23:22:00,
2013-03-31 18:32:00,50.0,36.0,29.81,West,275,11.0,-999.0,58,-99.99,,,-99.99,,2013-03-31 23:32:00,
2013-03-31 18:42:00,50.0,36.0,29.81,West,275,11.0,-999.0,58,-99.99,,,-99.99,,2013-03-31 23:42:00,
2013-03-31 18:53:00,48.0,35.0,29.82,West,280,14.0,-999.0,60,-99.99,,,-99.99,,2013-03-31 23:53:00,
2013-03-31 19:02:00,46.0,34.0,29.83,WNW,288,14.0,-999.0,62,-99.99,,,-99.99,,2013-04-01 00:02:00,
2013-03-31 19:12:00,46.0,34.0,29.83,WNW,288,14.0,-999.0,62,-99.99,,,-99.99,,2013-04-01 00:12:00,
2013-03-31 19:22:00,45.0,32.0,29.84,West,259,13.0,-999.0,60,-99.99,,,-99.99,,2013-04-01 00:22:00,
2013-03-31 19:32:00,44.0,32.0,29.85,WNW,302,11.0,-999.0,63,-99.99,,,-99.99,,2013-04-01 00:32:00,
2013-03-31 19:42:00,44.0,32.0,29.85,WNW,302,11.0,-999.0,63,-99.99,,,-99.99,,2013-04-01 00:42:00,
2013-03-31 19:53:00,43.0,31.0,29.85,WNW,292,11.0,-999.0,63,-99.99,,,-99.99,,2013-04-01 00:53:00,
2013-03-31 20:02:00,42.0,31.0,29.85,WNW,292,11.0,-999.0,66,-99.99,,,-99.99,,2013-04-01 01:02:00,
2013-03-31 20:12:00,42.0,31.0,29.85,WNW,292,11.0,-999.0,66,-99.99,,,-99.99,,2013-04-01 01:12:00,
2013-03-31 20:22:00,42.0,32.0,29.86,WNW,287,8.0,-999.0,68,-99.99,,,-99.99,,2013-04-01 01:22:00,
2013-03-31 20:32:00,41.0,32.0,29.87,WNW,288,8.0,-999.0,69,-99.99,,,-99.99,,2013-04-01 01:32:00,
2013-03-31 20:42:00,41.0,32.0,29.87,WNW,288,8.0,-999.0,69,-99.99,,,-99.99,,2013-04-01 01:42:00,
2013-03-31 20:53:00,41.0,32.0,29.87,WNW,284,8.0,-999.0,69,-99.99,,,-99.99,,2013-04-01 01:53:00,
2013-03-31 21:02:00,40.0,31.0,29.88,West,278,8.0,-999.0,71,-99.99,,,-99.99,,2013-04-01 02:02:00,
2013-03-31 21:12:00,40.0,31.0,29.88,West,278,8.0,-999.0,71,-99.99,,,-99.99,,2013-04-01 02:12:00,
2013-03-31 21:22:00,40.0,32.0,29.89,WNW,300,6.0,-999.0,72,-99.99,,,-99.99,,2013-04-01 02:22:00,
2013-03-31 21:32:00,40.0,32.0,29.89,WNW,303,7.0,-999.0,73,-99.99,,,-99.99,,2013-04-01 02:32:00,
2013-03-31 21:42:00,40.0,32.0,29.89,WNW,303,7.0,-999.0,73,-99.99,,,-99.99,,2013-04-01 02:42:00,
2013-03-31 21:53:00,39.0,31.0,29.90,WNW,294,7.0,-999.0,74,-99.99,,,-99.99,,2013-04-01 02:53:00,
2013-03-31 22:02:00,39.0,31.0,29.90,WNW,282,8.0,-999.0,72,-99.99,,,-99.99,,2013-04-01 03:02:00,
2013-03-31 22:12:00,39.0,31.0,29.90,WNW,282,8.0,-999.0,72,-99.99,,,-99.99,,2013-04-01 03:12:00,
2013-03-31 22:22:00,38.0,30.0,29.91,West,279,8.0,-999.0,72,-99.99,,,-99.99,,2013-04-01 03:22:00,
2013-03-31 22:34:00,38.0,30.0,29.91,WNW,286,7.0,-999.0,72,-99.99,,,-99.99,,2013-04-01 03:34:00,
2013-03-31 22:43:00,38.0,30.0,29.91,WNW,286,7.0,-999.0,72,-99.99,,,-99.99,,2013-04-01 03:43:00,
2013-03-31 22:53:00,37.0,29.0,29.91,WNW,298,7.0,-999.0,72,-99.99,,,-99.99,,2013-04-01 03:53:00,
2013-03-31 23:03:00,37.0,28.0,29.92,WNW,286,10.0,-999.0,71,-99.99,,,-99.99,,2013-04-01 04:03:00,
2013-03-31 23:13:00,37.0,28.0,29.92,WNW,286,10.0,-999.0,71,-99.99,,,-99.99,,2013-04-01 04:13:00,
2013-03-31 23:23:00,37.0,28.0,29.92,NW,307,9.0,-999.0,70,-99.99,,,-99.99,,2013-04-01 04:23:00,
2013-03-31 23:33:00,37.0,28.0,29.92,West,281,8.0,-999.0,70,-99.99,,,-99.99,,2013-04-01 04:33:00,
2013-03-31 23:43:00,37.0,28.0,29.92,West,281,8.0,-999.0,70,-99.99,,,-99.99,,2013-04-01 04:43:00,
2013-03-31 23:53:00,37.0,28.0,29.93,NW,307,9.0,-999.0,70,-99.99,,,-99.99,,2013-04-01 04:53:00,